Change the Weather History Date:

Tuesday, April 15, 2014

  Actual Average Record
Temperature  
Mean Temperature 76 °F 62 °F  
Max Temperature 91 °F 74 °F 96 °F (1947)
Min Temperature 60 °F 49 °F 35 °F (1970)
Degree Days  
Heating Degree Days 0    
Month to date heating degree days 44  
Since 1 July heating degree days 1477  
Cooling Degree Days 11    
Month to date cooling degree days 73  
Year to date cooling degree days 85  
Growing Degree Days 26 (Base 50)    
Moisture  
Dew Point 39 °F    
Average Humidity 35    
Maximum Humidity 60    
Minimum Humidity 9    
Precipitation  
Precipitation 0.00 in 0.03 in 0.67 in (1935)
Month to date precipitation 0.12 0.54  
Year to date precipitation 3.42 6.79  
Since 1 July precipitation 4.15 10.45  
Snow  
Snow 0.00 in - - ()
Month to date snowfall 0.0  
Since 1 July snowfall 0.0  
Snow Depth 0.00 in    
Sea Level Pressure  
Sea Level Pressure 29.91 in    
Wind  
Wind Speed 7 mph (WNW)    
Max Wind Speed 17 mph    
Max Gust Speed 21 mph    
Visibility 10 miles    
Events      
T = Trace of Precipitation, MM = Missing Value Source: NWS Daily Summary

Daily Weather History Graph

Daily Weather History Graph

Search for Another Location

Airport or City:

Trip Planner

Search our weather history database for the weather conditions in past years. The results will help you decide how hot, cold, wet, or windy it might be!

Date:

Astronomy

Apr. 15, 2014 Rise Set
Actual Time 6:24 AM PDT 7:33 PM PDT
Civil Twilight 5:58 AM PDT 8:00 PM PDT
Nautical Twilight 5:26 AM PDT 8:32 PM PDT
Astronomical Twilight 4:53 AM PDT 9:05 PM PDT
Moon 8:18 PM PDT (4/15) 6:36 AM PDT (4/15)
Length of Visible Light 14h 02m
Length of Day
13h 08m
Full, 100% of the Moon is Illuminated
Apr 15
Full
Apr 22
Last Quarter
Apr 28
New
May 6
First Quarter
May 14
Full

Hourly Weather History & Observations

Time (PDT) Temp. Dew Point Humidity Pressure Visibility Wind Dir Wind Speed Gust Speed Precip Events Conditions
12:53 AM 69.1 °F 44.1 °F 40% 30.00 in 10.0 mi Calm Calm - N/A   Partly Cloudy
1:53 AM 66.0 °F 45.0 °F 47% 29.99 in 10.0 mi NW 4.6 mph - N/A   Mostly Cloudy
2:53 AM 64.9 °F 45.0 °F 48% 29.97 in 10.0 mi Calm Calm - N/A   Overcast
3:53 AM 64.0 °F 46.9 °F 54% 29.97 in 10.0 mi West 5.8 mph - N/A   Overcast
4:53 AM 62.1 °F 46.9 °F 58% 29.96 in 10.0 mi WNW 3.5 mph - N/A   Mostly Cloudy
5:53 AM 61.0 °F 46.9 °F 60% 29.96 in 10.0 mi NNW 5.8 mph - N/A   Mostly Cloudy
6:53 AM 60.1 °F 46.9 °F 62% 29.96 in 10.0 mi North 4.6 mph - N/A   Overcast
7:53 AM 66.0 °F 45.0 °F 47% 29.97 in 10.0 mi Calm Calm - N/A   Overcast
8:53 AM 71.1 °F 44.1 °F 38% 29.98 in 10.0 mi Calm Calm - N/A   Mostly Cloudy
9:53 AM 73.9 °F 44.1 °F 34% 29.99 in 10.0 mi West 4.6 mph - N/A   Mostly Cloudy
10:53 AM 78.1 °F 42.1 °F 28% 29.97 in 10.0 mi Variable 5.8 mph - N/A   Scattered Clouds
11:53 AM 82.0 °F 39.9 °F 22% 29.95 in 10.0 mi Calm Calm - N/A   Scattered Clouds
12:53 PM 84.9 °F 39.0 °F 20% 29.91 in 10.0 mi Variable 4.6 mph - N/A   Partly Cloudy
1:53 PM 86.0 °F 34.0 °F 16% 29.88 in 10.0 mi SSW 4.6 mph - N/A   Partly Cloudy
2:53 PM 89.1 °F 28.9 °F 12% 29.87 in 10.0 mi SSW 4.6 mph - N/A   Clear
3:53 PM 88.0 °F 25.0 °F 10% 29.85 in 10.0 mi WNW 9.2 mph - N/A   Partly Cloudy
4:53 PM 88.0 °F 23.0 °F 9% 29.83 in 10.0 mi NW 10.4 mph 17.3 mph N/A   Scattered Clouds
5:53 PM 87.1 °F 24.1 °F 10% 29.82 in 10.0 mi NW 16.1 mph - N/A   Scattered Clouds
6:53 PM 84.0 °F 26.1 °F 12% 29.81 in 10.0 mi WNW 11.5 mph - N/A   Partly Cloudy
7:53 PM 80.1 °F 37.0 °F 21% 29.81 in 10.0 mi NW 11.5 mph - N/A   Partly Cloudy
8:53 PM 77.0 °F 37.0 °F 24% 29.83 in 10.0 mi NW 9.2 mph - N/A   Clear
9:53 PM 73.9 °F 41.0 °F 30% 29.84 in 10.0 mi NW 13.8 mph - N/A   Clear
10:53 PM 71.1 °F 43.0 °F 36% 29.84 in 10.0 mi NW 11.5 mph - N/A   Clear
11:53 PM 68.0 °F 44.1 °F 42% 29.84 in 10.0 mi WNW 10.4 mph - N/A   Clear